KA5FVT Weather Reports


time (UTC)temp
F
wind
direction
speed
knots
gust
knots
rain 1hr
in
rain 24hr
in
rain mn
in
humidity
%
barometer
mb
20260505011929 76 171 0.9 0.9 0.00 0.00 0.00 70 1009.9
20260505011426 76 171 0.9 1.7 0.00 0.00 0.00 70 1010.0
20260505010927 76 171 0.0 1.7 0.00 0.00 0.00 70 1010.0
20260505010429 76 171 0.0 0.9 0.00 0.00 0.00 70 1010.0
20260505005926 76 171 0.0 0.9 0.00 0.00 0.00 70 1009.9
20260505005429 77 171 0.9 1.7 0.00 0.00 0.00 69 1009.9
20260505004926 77 171 0.0 1.7 0.00 0.00 0.00 69 1009.9
20260505004426 77 171 0.0 0.9 0.00 0.00 0.00 69 1009.8
20260505003929 77 171 0.0 0.9 0.00 0.00 0.00 68 1009.8
20260505003431 77 171 0.0 1.7 0.00 0.00 0.00 68 1009.7
20260505002926 77 171 0.9 0.9 0.00 0.00 0.00 68 1009.6
20260505002429 78 171 0.0 0.9 0.00 0.00 0.00 68 1009.7
20260505001930 78 171 0.0 1.7 0.00 0.00 0.00 67 1009.9
20260505001426 78 171 0.0 0.9 0.00 0.00 0.00 67 1009.9
20260505000926 78 171 0.0 1.7 0.00 0.00 0.00 67 1010.0
20260505000428 78 171 0.0 1.7 0.00 0.00 0.00 66 1010.0
20260504235927 78 171 0.9 1.7 0.00 0.00 0.00 66 1010.0
20260504235426 78 173 0.9 1.7 0.00 0.00 0.00 66 1010.0
20260504234926 78 145 0.0 1.7 0.00 0.00 0.00 66 1009.9
20260504234426 78 139 0.0 1.7 0.00 0.00 0.00 65 1009.9
20260504233927 79 173 1.7 1.7 0.00 0.00 0.00 65 1010.1
20260504233429 79 179 0.9 1.7 0.00 0.00 0.00 65 1010.2
20260504232926 79 180 0.9 1.7 0.00 0.00 0.00 65 1010.2
20260504232426 79 180 0.9 1.7 0.00 0.00 0.00 65 1010.1
20260504231926 79 180 1.7 1.7 0.00 0.00 0.00 65 1010.1
20260504231426 79 180 0.0 1.7 0.00 0.00 0.00 64 1010.2
20260504230926 79 180 0.9 1.7 0.00 0.00 0.00 64 1010.3
20260504230427 80 174 0.9 1.7 0.00 0.00 0.00 64 1010.5
20260504225929 80 187 0.9 0.9 0.00 0.00 0.00 65 1010.4
20260504225426 80 187 0.0 1.7 0.00 0.00 0.00 63 1010.4
20260504224929 80 189 0.9 1.7 0.00 0.00 0.00 63 1010.4
20260504224429 80 178 0.9 1.7 0.00 0.00 0.00 63 1010.5
20260504223926 80 178 0.0 3.5 0.00 0.00 0.00 62 1010.6
20260504223427 80 197 0.0 1.7 0.00 0.00 0.00 62 1010.6
20260504222926 80 197 0.9 1.7 0.00 0.00 0.00 61 1010.6
20260504222426 80 197 0.9 1.7 0.00 0.00 0.00 60 1010.6
20260504221926 80 198 0.0 1.7 0.00 0.00 0.00 60 1010.7
20260504221429 81 197 0.9 1.7 0.00 0.00 0.00 61 1010.7
20260504220926 81 197 0.9 1.7 0.00 0.00 0.00 59 1010.8
20260504220426 81 197 0.9 1.7 0.00 0.00 0.00 58 1010.8
20260504215926 81 197 0.9 1.7 0.00 0.00 0.00 59 1010.8
20260504215427 81 198 0.0 0.9 0.00 0.00 0.00 58 1010.9
20260504214926 81 198 0.0 1.7 0.00 0.00 0.00 58 1011.0
20260504214426 81 229 0.0 1.7 0.00 0.00 0.00 58 1011.0
20260504213926 81 220 0.9 1.7 0.00 0.00 0.00 58 1010.9
20260504213426 81 220 0.9 1.7 0.00 0.00 0.00 57 1011.0
20260504212927 82 221 0.9 0.9 0.00 0.00 0.00 56 1011.2
20260504212427 82 221 0.0 1.7 0.00 0.00 0.00 56 1011.1
20260504211926 82 221 0.0 1.7 0.00 0.00 0.00 56 1011.3
20260504211426 82 221 0.9 1.7 0.00 0.00 0.00 56 1011.3
20260504210929 82 221 1.7 1.7 0.00 0.00 0.00 56 1011.4
20260504210426 82 221 0.9 1.7 0.00 0.00 0.00 56 1011.3
20260504205926 82 221 0.0 1.7 0.00 0.00 0.00 57 1011.4
20260504205426 82 221 0.9 1.7 0.00 0.00 0.00 56 1011.6
20260504204927 82 227 0.9 1.7 0.00 0.00 0.00 57 1011.7
20260504204426 82 295 1.7 2.6 0.00 0.00 0.00 56 1011.6
20260504203926 82 261 0.9 2.6 0.00 0.00 0.00 56 1011.8
20260504203426 82 186 0.9 2.6 0.00 0.00 0.00 56 1011.7
20260504202926 82 186 0.9 1.7 0.00 0.00 0.00 56 1011.9
20260504202427 82 183 0.0 2.6 0.00 0.00 0.00 56 1012.1
20260504201927 82 223 0.9 1.7 0.00 0.00 0.00 55 1012.1
20260504201426 82 223 1.7 1.7 0.00 0.00 0.00 55 1012.2
20260504200926 82 185 0.0 1.7 0.00 0.00 0.00 56 1012.3
20260504200426 82 185 1.7 1.7 0.00 0.00 0.00 55 1012.3
20260504195926 82 5 0.0 0.9 0.00 0.00 0.00 56 1012.4
20260504195426 81 5 0.9 1.7 0.00 0.00 0.00 54 1012.7
20260504194926 81 5 0.9 1.7 0.00 0.00 0.00 56 1012.6
20260504194427 82 195 0.0 1.7 0.00 0.00 0.00 56 1012.8
20260504193926 82 269 0.9 1.7 0.00 0.00 0.00 55 1012.7
20260504193426 82 269 0.0 2.6 0.00 0.00 0.00 56 1012.8
20260504192926 81 166 0.9 1.7 0.00 0.00 0.00 56 1012.8
20260504192426 81 149 0.0 1.7 0.00 0.00 0.00 54 1013.0
20260504191927 82 94 0.9 1.7 0.00 0.00 0.00 55 1013.1
20260504191427 82 173 1.7 1.7 0.00 0.00 0.00 54 1013.1
20260504190926 82 173 0.9 1.7 0.00 0.00 0.00 54 1013.1
20260504190426 82 171 0.9 1.7 0.00 0.00 0.00 54 1013.2
20260504185929 82 224 0.9 1.7 0.00 0.00 0.00 56 1013.3
20260504185429 82 224 0.0 1.7 0.00 0.00 0.00 55 1013.5
20260504184927 82 227 0.0 1.7 0.00 0.00 0.00 55 1013.5
20260504184429 82 242 0.9 1.7 0.00 0.00 0.00 55 1013.4
20260504183926 82 242 1.7 2.6 0.00 0.00 0.00 54 1013.5
20260504183426 82 200 1.7 1.7 0.00 0.00 0.00 53 1013.5
20260504182927 82 195 0.9 1.7 0.00 0.00 0.00 54 1013.3
20260504182430 81 238 0.9 1.7 0.00 0.00 0.00 55 1013.3
20260504181926 81 235 0.9 1.7 0.00 0.00 0.00 54 1013.4
20260504181426 82 160 0.9 1.7 0.00 0.00 0.00 52 1013.5
20260504180926 82 140 0.0 3.5 0.00 0.00 0.00 52 1013.7
20260504180426 82 209 1.7 1.7 0.00 0.00 0.00 54 1013.9
20260504175926 81 167 0.9 3.5 0.00 0.00 0.00 54 1013.9
20260504175426 81 286 0.9 1.7 0.00 0.00 0.00 55 1014.1
20260504174926 81 142 0.0 1.7 0.00 0.00 0.00 53 1013.9
20260504174426 81 142 0.0 1.7 0.00 0.00 0.00 56 1014.0
20260504173927 81 142 0.9 1.7 0.00 0.00 0.00 57 1014.2
20260504173428 81 143 0.9 1.7 0.00 0.00 0.00 56 1014.2
20260504172927 80 182 0.9 1.7 0.00 0.00 0.00 57 1014.1
20260504172430 80 184 0.9 1.7 0.00 0.00 0.00 55 1014.2
20260504171927 80 177 0.9 1.7 0.00 0.00 0.00 56 1014.4
20260504171430 80 177 0.9 1.7 0.00 0.00 0.00 56 1014.5
20260504170926 80 240 0.0 1.7 0.00 0.00 0.00 56 1014.5
20260504170426 80 213 0.9 1.7 0.00 0.00 0.00 58 1014.5
20260504160426 76 175 1.7 1.7 0.00 0.00 0.00 62 1015.4
20260504150926 73 130 0.9 1.7 0.00 0.00 0.00 66 1015.5
20260504150426 73 163 0.0 1.7 0.00 0.00 0.00 66 1015.5
20260504140927 69 195 0.0 0.9 0.00 0.00 0.00 68 1015.4
20260504140426 69 196 0.0 1.7 0.00 0.00 0.00 69 1015.3
20260504130426 62 200 0.0 0.0 0.00 0.00 0.00 82 1015.5
20260504110426 60 163 0.0 0.0 0.00 0.00 0.00 80 1015.1
20260504100429 61 163 0.0 0.0 0.00 0.00 0.00 77 1015.4
20260504081926 63 163 0.0 0.0 0.00 0.00 0.00 75 1016.0
20260504081429 63 163 0.0 0.0 0.00 0.00 0.00 75 1016.0
20260504080926 63 163 0.0 0.0 0.00 0.00 0.00 74 1016.1
20260504080426 63 163 0.0 0.0 0.00 0.00 0.00 74 1016.1
20260504050427 66 163 0.0 0.0 0.00 0.00 0.00 64 1017.9
20260504045926 66 163 0.0 0.0 0.00 0.00 0.00 64 1017.9
20260504045429 67 163 0.0 0.0 0.00 0.00 0.00 63 1017.9
20260504044926 67 163 0.0 0.0 0.00 0.00 0.00 63 1018.0
20260504044426 67 163 0.0 0.0 0.00 0.00 0.00 62 1018.0
20260504043926 67 163 0.0 0.0 0.00 0.00 0.00 62 1018.0
20260504043426 67 163 0.0 0.0 0.00 0.00 0.00 61 1018.0
20260504042930 67 163 0.0 0.9 0.00 0.00 0.00 61 1018.1
20260504042429 67 163 0.0 0.0 0.00 0.00 0.00 61 1018.0
20260504041926 68 163 0.0 0.0 0.00 0.00 0.00 61 1018.1
20260504041426 68 163 0.0 0.0 0.00 0.00 0.00 61 1018.2
20260504040926 68 163 0.0 0.0 0.00 0.00 0.00 60 1018.2
20260504040426 68 163 0.0 0.0 0.00 0.00 0.00 59 1018.1
20260504035927 68 163 0.0 0.0 0.00 0.00 0.00 59 1018.2
20260504035427 68 163 0.0 0.0 0.00 0.00 0.00 59 1018.0
20260504034926 68 163 0.0 0.0 0.00 0.00 0.00 58 1018.0
20260504034426 69 163 0.0 0.0 0.00 0.00 0.00 58 1018.2
20260504033926 69 163 0.0 0.0 0.00 0.00 0.00 58 1018.2
20260504033429 69 163 0.0 0.0 0.00 0.00 0.00 57 1018.2
20260504032929 69 163 0.0 0.0 0.00 0.00 0.00 57 1018.2
20260504032426 69 163 0.0 0.0 0.00 0.00 0.00 55 1018.3
20260504031927 69 163 0.0 0.0 0.00 0.00 0.00 55 1017.9
20260504031429 70 163 0.0 0.0 0.00 0.00 0.00 55 1017.8
20260504030926 70 163 0.0 0.0 0.00 0.00 0.00 55 1017.8
20260504030426 70 163 0.0 0.0 0.00 0.00 0.00 54 1017.9
20260504025926 70 163 0.0 0.0 0.00 0.00 0.00 54 1017.9
20260504025426 70 163 0.0 0.0 0.00 0.00 0.00 53 1017.9
20260504024926 71 163 0.0 0.9 0.00 0.00 0.00 53 1017.8
20260504024427 71 163 0.0 0.9 0.00 0.00 0.00 52 1017.9
20260504023926 71 163 0.9 1.7 0.00 0.00 0.00 51 1017.8
20260504023426 71 163 0.9 1.7 0.00 0.00 0.00 52 1017.8
20260504022926 71 163 0.9 0.9 0.00 0.00 0.00 51 1017.9
20260504022426 71 163 0.0 1.7 0.00 0.00 0.00 51 1017.8
20260504021926 72 163 0.0 0.9 0.00 0.00 0.00 51 1017.8
20260504021426 72 163 0.0 1.7 0.00 0.00 0.00 50 1017.6
20260504020930 72 163 0.9 1.7 0.00 0.00 0.00 49 1017.5
20260504020426 72 163 0.9 0.9 0.00 0.00 0.00 50 1017.5
20260504015929 72 163 0.0 0.9 0.00 0.00 0.00 49 1017.5
20260504015426 72 163 0.9 0.9 0.00 0.00 0.00 49 1017.5
20260504014926 73 163 0.0 0.9 0.00 0.00 0.00 49 1017.5
20260504014429 73 163 0.0 1.7 0.00 0.00 0.00 48 1017.5
20260504013929 73 163 0.9 0.9 0.00 0.00 0.00 48 1017.4
20260504013427 73 163 0.0 0.9 0.00 0.00 0.00 49 1017.4
20260504012929 73 163 0.9 0.9 0.00 0.00 0.00 47 1017.3
20260504012426 73 163 0.0 0.0 0.00 0.00 0.00 47 1017.1